Regional Weather Roundup
Issued by NWS

Home | Current Version | Previous Version | Graphics & Text | Print | Product List | Glossary On
Versions: 1 2 3 4 5 6 7 8 9 10 11 12 13 14 15 16 17 18 19 20 21 22 23 24 25 26 27 28 29 30 31 32 33 34 35 36 37 38 39 40 41 42 43 44 45 46 47 48 49 50
000
ASUS45 KSLC 262010
RWRUT

UTAH REGIONAL WEATHER ROUNDUP
NATIONAL WEATHER SERVICE SALT LAKE CITY UT
100 PM MST THU FEB 26 2015

UTZ001>011-023>025-262100-

NORTHERN UTAH

CITY           SKY/WX    TMP DP  RH WIND       PRES   REMARKS
BRIGHAM CITY   CLOUDY    40  26  59 CALM      29.95F
HILL AFB       PTSUNNY   35  31  86 VRB1      29.94F FOG
LOGAN          FLURRIES  36  28  73 CALM      29.95F
OGDEN          CLOUDY    37  29  72 VRB3      29.94F
PROVO AIRPORT  CLOUDY    36  28  75 CALM      29.96F
SALT LAKE CITY LGT RAIN  36  32  85 N5        29.95F WCI  32
VERNAL         CLOUDY    36  15  42 CALM      29.93F
WENDOVER       CLOUDY    45  27  49 N7G16     29.97F
HEBER CITY     PTSUNNY   37  27  65 E3        29.89F
WEST JORDAN    CLOUDY    34  34 100 N9        29.96F WCI  26

$$

UTZ012>022-026-027-262100-

SOUTHERN/CENTRAL UTAH

CITY           SKY/WX    TMP DP  RH WIND       PRES   REMARKS
BLANDING       CLOUDY    36  20  53 S6        30.00F WCI  31
BRYCE CANYON   CLOUDY    32  23  69 CALM      29.89F
CEDAR CITY     CLOUDY    44  21  40 CALM      29.89F
DELTA          CLOUDY    43  23  44 N5G10     29.93F
HANKSVILLE     CLOUDY    43  21  42 CALM      29.93F
MILFORD        CLOUDY    45  19  35 NE9       29.90F
MOAB/CYNLANDS  SUNNY     44  15  31 E7        29.90F
PRICE          CLOUDY    38  15  39 SE10      29.90F WCI  31
ST GEORGE      MOCLDY    52  30  43 CALM      29.90F
KANAB          MOSUNNY   46  30  53 S9        29.90F

$$

REGIONAL REPORTS     COLORADO/ARIZONA

CITY           SKY/WX    TMP DP  RH WIND       PRES   REMARKS
CRAIG, CO      LGT SNOW  29  21  72 NW3       29.95F
GRAND JUNCTION PTSUNNY   40  19  43 VRB7      29.91F
RIFLE          PTSUNNY   38   9  30 CALM      29.91F
MONTROSE       PTSUNNY   30  20  66 CALM      29.94F
CORTEZ         SUNNY     38  22  52 SW7       29.93F WCI  33
PAGE, AZ       CLOUDY    47  28  47 CALM      29.86F
GRAND CANYON   CLOUDY    45  23  42 SW18G25   29.92F
KINGMAN        PTSUNNY   64  20  18 SW15G22   29.89F
FLAGSTAFF      CLOUDY    42  17  36 SW15      29.93F

$$

REGIONAL REPORTS    NEVADA/IDAHO/WYOMING

CITY           SKY/WX    TMP DP  RH WIND       PRES   REMARKS
LAS VEGAS, NV  MOSUNNY   65  22  19 S5        29.83F
ELY            CLOUDY    41  18  39 NW21G26   29.95F
ELKO           CLOUDY    43  23  45 NW17G23   30.00F
POCATELLO, ID  MOSUNNY   42  15  33 CALM      29.97F
BURLEY         CLOUDY    44  17  33 NW7       29.98F
EVANSTON, WY   LGT SNOW  27  23  85 E9        29.88F VSB 1   WCI  18
ROCK SPRINGS   LGT SNOW  21  16  81 E15       29.94F WCI   8

$$


USA.gov is the U.S. government's official web portal to all federal, state and local government web resources and services.